TimeEST,TemperatureF,Dew PointF,Humidity,Sea Level PressureIn,VisibilityMPH,Wind Direction,Wind SpeedMPH,Gust SpeedMPH,PrecipitationIn,Events,Conditions,WindDirDegrees,DateUTC
12:23 AM,24.8,19.4,80,29.96,1.8,Variable,6.9,-,0.00,Snow,Light Snow,0,2013-02-20 05:23:00
12:37 AM,24.8,21.2,86,29.96,3.0,Variable,5.8,-,0.00,Snow,Light Snow,0,2013-02-20 05:37:00
12:53 AM,25.0,19.9,81,30.00,1.0,West,6.9,16.1,0.00,Snow,Light Snow,260,2013-02-20 05:53:00
1:04 AM,24.8,17.6,74,29.97,2.5,West,10.4,20.7,0.00,Snow,Light Snow,270,2013-02-20 06:04:00
1:11 AM,24.8,17.6,74,29.97,9.0,West,10.4,21.9,0.00,,Overcast,260,2013-02-20 06:11:00
1:53 AM,24.1,12.9,62,30.01,10.0,West,10.4,23.0,0.00,,Overcast,260,2013-02-20 06:53:00
2:53 AM,23.0,14.0,68,30.02,10.0,Variable,5.8,-,N/A,,Overcast,0,2013-02-20 07:53:00
3:35 AM,23.0,15.8,74,29.99,2.5,West,12.7,18.4,0.00,Snow,Light Snow,280,2013-02-20 08:35:00
3:41 AM,21.2,17.6,86,29.99,0.8,West,6.9,18.4,0.00,Snow,Light Snow,270,2013-02-20 08:41:00
3:49 AM,21.2,17.6,86,30.00,2.0,WSW,8.1,-,0.00,Snow,Light Snow,240,2013-02-20 08:49:00
3:53 AM,21.9,16.0,78,30.03,6.0,WSW,8.1,-,0.00,,Haze,250,2013-02-20 08:53:00
4:04 AM,21.2,14.0,74,30.00,10.0,West,5.8,-,N/A,,Overcast,260,2013-02-20 09:04:00
4:53 AM,21.9,10.9,63,30.05,10.0,West,8.1,-,N/A,,Overcast,270,2013-02-20 09:53:00
5:53 AM,21.9,14.0,72,30.07,4.0,West,8.1,-,0.00,Snow,Light Snow,280,2013-02-20 10:53:00
6:03 AM,21.2,15.8,80,30.03,3.0,West,8.1,-,0.00,Snow,Light Snow,270,2013-02-20 11:03:00
6:15 AM,21.2,15.8,80,30.04,1.5,WNW,6.9,-,0.00,Snow,Light Snow,300,2013-02-20 11:15:00
6:29 AM,21.2,15.8,80,30.04,2.5,West,8.1,-,0.00,Snow,Light Snow,280,2013-02-20 11:29:00
6:36 AM,21.2,15.8,80,30.04,5.0,West,6.9,-,0.00,,Haze,280,2013-02-20 11:36:00
6:53 AM,21.0,15.1,78,30.09,7.0,West,6.9,-,0.00,,Overcast,280,2013-02-20 11:53:00
7:38 AM,21.2,12.2,68,30.05,10.0,WSW,13.8,26.5,N/A,,Overcast,240,2013-02-20 12:38:00
7:53 AM,21.9,12.0,66,30.11,10.0,Variable,5.8,17.3,N/A,,Overcast,0,2013-02-20 12:53:00
8:53 AM,21.0,12.0,68,30.12,8.0,West,9.2,19.6,N/A,,Overcast,260,2013-02-20 13:53:00
9:53 AM,21.9,14.0,72,30.13,10.0,WSW,5.8,-,N/A,,Overcast,250,2013-02-20 14:53:00
10:53 AM,21.9,16.0,78,30.14,5.0,Variable,6.9,-,N/A,,Haze,0,2013-02-20 15:53:00
11:25 AM,23.0,14.0,68,30.08,10.0,WSW,9.2,-,N/A,,Overcast,250,2013-02-20 16:25:00
11:42 AM,21.2,15.8,80,30.09,2.5,WNW,9.2,-,0.00,Snow,Light Snow,290,2013-02-20 16:42:00
11:51 AM,21.2,15.8,80,30.09,1.2,WNW,10.4,-,0.00,Snow,Light Snow,290,2013-02-20 16:51:00
11:53 AM,21.0,16.0,81,30.14,1.0,West,9.2,-,0.00,Snow,Light Snow,280,2013-02-20 16:53:00
12:04 PM,21.2,15.8,80,30.09,3.0,West,10.4,-,0.00,Snow,Light Snow,280,2013-02-20 17:04:00
12:53 PM,23.0,12.9,65,30.14,9.0,WNW,10.4,19.6,0.00,,Overcast,290,2013-02-20 17:53:00
1:53 PM,23.0,12.0,63,30.14,10.0,WNW,8.1,20.7,N/A,,Overcast,300,2013-02-20 18:53:00
2:53 PM,23.0,12.9,65,30.16,10.0,NW,6.9,16.1,N/A,,Overcast,310,2013-02-20 19:53:00
3:53 PM,21.9,12.0,66,30.20,10.0,West,10.4,21.9,N/A,,Overcast,280,2013-02-20 20:53:00
4:53 PM,21.9,10.9,63,30.22,10.0,West,12.7,-,N/A,,Overcast,280,2013-02-20 21:53:00
5:53 PM,21.0,9.0,60,30.25,10.0,West,6.9,-,N/A,,Overcast,280,2013-02-20 22:53:00
6:53 PM,21.0,8.1,57,30.25,10.0,West,11.5,-,N/A,,Overcast,280,2013-02-20 23:53:00
8:53 PM,19.9,8.1,60,30.27,10.0,West,6.9,-,N/A,,Overcast,260,2013-02-21 01:53:00
9:53 PM,19.9,9.0,62,30.27,10.0,WSW,11.5,-,N/A,,Overcast,250,2013-02-21 02:53:00
10:53 PM,19.9,9.0,62,30.26,10.0,Variable,5.8,-,N/A,,Overcast,0,2013-02-21 03:53:00
11:53 PM,19.9,10.0,65,30.24,10.0,WSW,3.5,-,N/A,,Overcast,250,2013-02-21 04:53:00